Tracking 30922 objects as of 2-Jul-2025
HD Live streaming from Space Station
objects crossing your sky now

ITASAT-1

Track ITASAT-1 now!
10-day predictions
ITASAT-1 is classified as:


NORAD ID: 43786
Int'l Code: 2018-099AE
Perigee: 522.9 km
Apogee: 544.6 km
Inclination: 97.5 °
Period: 95.2 minutes
Semi major axis: 6904 km
RCS: Unknown
Launch date: December 3, 2018
Source: (TBD)
Launch site: AIR FORCE WESTERN TEST RANGE (AFWTR)

Uplink (MHz):
Downlink (MHz): 145.860/2400.150
Beacon (MHz):
Mode: 1k2 BPSK/14k4 BPSK
Call sign: PY0EIA
Status: Inactive

Your satellite tracking list
WESTFORD NEEDLES
Track 1 satellite(s)




NASA's NSSDC Master Catalog

Two Line Element Set (TLE):
1 43786U 18099AE  25182.70062921  .00005482  00000-0  31194-3 0  9990
2 43786  97.4549 236.5596 0015727 127.2940 232.9727 15.13153672359802
Source of the keplerian elements: AMSAT